| time (UTC) | temp F | wind direction | speed MPH | gust MPH | rain 1hr in | rain 24hr in | rain mn in | humidity % | barometer mb |
| 20260904100503 | 89 | 194 | 0.0 | 3.0 | 0.00 | 0.00 | 0.00 | 13 | |
| 20260904100003 | 89 | 226 | 0.0 | 3.0 | 0.00 | 0.00 | 0.00 | 13 | |
| 20260904095503 | 89 | 230 | 1.0 | 3.0 | 0.00 | 0.00 | 0.00 | 14 | |
| 20260904095003 | 89 | 196 | 0.0 | 2.0 | 0.00 | 0.00 | 0.00 | 16 | |
| 20260904094503 | 87 | 223 | 0.0 | 4.0 | 0.00 | 0.00 | 0.00 | 18 | |
| 20260904094003 | 87 | 207 | 1.0 | 4.0 | 0.00 | 0.00 | 0.00 | 18 | |
| 20260904093503 | 86 | 206 | 2.0 | 4.0 | 0.00 | 0.00 | 0.00 | 18 | |
| 20260904093003 | 85 | 259 | 0.0 | 2.0 | 0.00 | 0.00 | 0.00 | 20 | |
| 20260904092503 | 84 | 282 | 0.0 | 2.0 | 0.00 | 0.00 | 0.00 | 23 | |
| 20260904092003 | 83 | 305 | 1.0 | 2.0 | 0.00 | 0.00 | 0.00 | 26 | |
| 20260904091503 | 82 | 25 | 1.0 | 2.0 | 0.00 | 0.00 | 0.00 | 27 | |
| 20260904091003 | 81 | 21 | 0.0 | 2.0 | 0.00 | 0.00 | 0.00 | 28 | |
| 20260904090503 | 79 | 22 | 0.0 | 2.0 | 0.00 | 0.00 | 0.00 | 29 | |
| 20260904090003 | 79 | 23 | 0.0 | 2.0 | 0.00 | 0.00 | 0.00 | 29 | |
| 20260904085503 | 79 | 32 | 0.0 | 4.0 | 0.00 | 0.00 | 0.00 | 30 | |
| 20260904085003 | 79 | 27 | 1.0 | 4.0 | 0.00 | 0.00 | 0.00 | 29 | |
| 20260904084503 | 78 | 14 | 0.0 | 4.0 | 0.00 | 0.00 | 0.00 | 31 | |
| 20260904084003 | 77 | 102 | 0.0 | 4.0 | 0.00 | 0.00 | 0.00 | 31 | |
| 20260904083503 | 77 | 127 | 2.0 | 4.0 | 0.00 | 0.00 | 0.00 | 32 | |
| 20260904083003 | 77 | 112 | 0.0 | 4.0 | 0.00 | 0.00 | 0.00 | 34 | |
| 20260904082503 | 76 | 95 | 0.0 | 4.0 | 0.00 | 0.00 | 0.00 | 34 | |
| 20260904082003 | 76 | 137 | 0.0 | 2.0 | 0.00 | 0.00 | 0.00 | 35 | |
| 20260904081503 | 76 | 141 | 0.0 | 2.0 | 0.00 | 0.00 | 0.00 | 35 | |
| 20260904081003 | 75 | 147 | 1.0 | 2.0 | 0.00 | 0.00 | 0.00 | 36 | |
| 20260904080503 | 73 | 132 | 0.0 | 3.0 | 0.00 | 0.00 | 0.00 | 38 | |
| 20260904080003 | 73 | 143 | 0.0 | 3.0 | 0.00 | 0.00 | 0.00 | 38 | |
| 20260904075503 | 73 | 128 | 0.0 | 4.0 | 0.00 | 0.00 | 0.00 | 39 | |
| 20260904075003 | 72 | 120 | 1.0 | 4.0 | 0.00 | 0.00 | 0.00 | 39 | |
| 20260904074503 | 71 | 119 | 1.0 | 4.0 | 0.00 | 0.00 | 0.00 | 40 | |
| 20260904074003 | 71 | 110 | 0.0 | 4.0 | 0.00 | 0.00 | 0.00 | 41 | |
| 20260904073503 | 70 | 122 | 1.0 | 4.0 | 0.00 | 0.00 | 0.00 | 41 | |
| 20260904073003 | 70 | 147 | 2.0 | 5.0 | 0.00 | 0.00 | 0.00 | 42 | |
| 20260904072503 | 70 | 143 | 2.0 | 5.0 | 0.00 | 0.00 | 0.00 | 43 | |
| 20260904072003 | 69 | 135 | 2.0 | 5.0 | 0.00 | 0.00 | 0.00 | 43 | |
| 20260904071503 | 69 | 127 | 0.0 | 4.0 | 0.00 | 0.00 | 0.00 | 44 | |
| 20260904071003 | 69 | 121 | 2.0 | 3.0 | 0.00 | 0.00 | 0.00 | 45 | |
| 20260904070503 | 68 | 127 | 1.0 | 5.0 | 0.00 | 0.00 | 0.00 | 47 | |
| 20260904070003 | 68 | 119 | 1.0 | 5.0 | 0.00 | 0.00 | 0.00 | 47 | |
| 20260904065503 | 68 | 122 | 1.0 | 5.0 | 0.00 | 0.00 | 0.00 | 49 | |
| 20260904065003 | 67 | 114 | 1.0 | 5.0 | 0.00 | 0.00 | 0.00 | 50 | |
| 20260904064503 | 67 | 139 | 1.0 | 8.0 | 0.00 | 0.00 | 0.00 | 50 | |
| 20260904064003 | 67 | 155 | 2.0 | 8.0 | 0.00 | 0.00 | 0.00 | 50 | |
| 20260904063503 | 66 | 143 | 2.0 | 6.0 | 0.00 | 0.00 | 0.00 | 51 | |
| 20260904063003 | 66 | 144 | 1.0 | 5.0 | 0.00 | 0.00 | 0.00 | 52 | |
| 20260904062503 | 66 | 131 | 1.0 | 5.0 | 0.00 | 0.00 | 0.00 | 52 | |
| 20260904062003 | 66 | 113 | 1.0 | 3.0 | 0.00 | 0.00 | 0.00 | 53 | |
| 20260904061503 | 65 | 154 | 1.0 | 4.0 | 0.00 | 0.00 | 0.00 | 54 | |
| 20260904061003 | 65 | 177 | 1.0 | 4.0 | 0.00 | 0.00 | 0.00 | 54 | |
| 20260904060503 | 65 | 169 | 1.0 | 4.0 | 0.00 | 0.00 | 0.00 | 55 | |
| 20260904060003 | 65 | 138 | 1.0 | 4.0 | 0.00 | 0.00 | 0.00 | 55 | |
| 20260904055503 | 65 | 127 | 1.0 | 3.0 | 0.00 | 0.00 | 0.00 | 56 | |
| 20260904055003 | 64 | 132 | 1.0 | 3.0 | 0.00 | 0.00 | 0.00 | 56 | |
| 20260904054503 | 64 | 129 | 1.0 | 3.0 | 0.00 | 0.00 | 0.00 | 57 | |
| 20260904054003 | 64 | 129 | 0.0 | 3.0 | 0.00 | 0.00 | 0.00 | 57 | |
| 20260904053503 | 64 | 118 | 0.0 | 5.0 | 0.00 | 0.00 | 0.00 | 57 | |
| 20260904053003 | 64 | 132 | 1.0 | 5.0 | 0.00 | 0.00 | 0.00 | 57 | |
| 20260904052503 | 64 | 156 | 1.0 | 5.0 | 0.00 | 0.00 | 0.00 | 57 | |
| 20260904052003 | 64 | 108 | 2.0 | 4.0 | 0.00 | 0.00 | 0.00 | 57 | |
| 20260904051503 | 64 | 110 | 0.0 | 4.0 | 0.00 | 0.00 | 0.00 | 57 | |
| 20260904051003 | 64 | 132 | 0.0 | 3.0 | 0.00 | 0.00 | 0.00 | 57 | |
| 20260904050503 | 64 | 135 | 1.0 | 2.0 | 0.00 | 0.00 | 0.00 | 57 | |
| 20260904050003 | 64 | 137 | 1.0 | 2.0 | 0.00 | 0.00 | 0.00 | 57 | |
| 20260904045503 | 64 | 130 | 0.0 | 2.0 | 0.00 | 0.00 | 0.00 | 57 | |
| 20260904045003 | 64 | 123 | 0.0 | 4.0 | 0.00 | 0.00 | 0.00 | 57 | |
| 20260904044503 | 64 | 110 | 0.0 | 4.0 | 0.00 | 0.00 | 0.00 | 58 | |
| 20260904044003 | 64 | 94 | 0.0 | 3.0 | 0.00 | 0.00 | 0.00 | 59 | |
| 20260904043503 | 64 | 105 | 0.0 | 4.0 | 0.00 | 0.00 | 0.00 | 59 | |
| 20260904043003 | 63 | 112 | 0.0 | 4.0 | 0.00 | 0.00 | 0.00 | 59 | |
| 20260904042503 | 63 | 127 | 2.0 | 4.0 | 0.00 | 0.00 | 0.00 | 59 | |
| 20260904042003 | 63 | 132 | 0.0 | 2.0 | 0.00 | 0.00 | 0.00 | 59 | |
| 20260904041503 | 63 | 135 | 0.0 | 2.0 | 0.00 | 0.00 | 0.00 | 59 | |
| 20260904041003 | 63 | 135 | 0.0 | 2.0 | 0.00 | 0.00 | 0.00 | 59 | |
| 20260904040503 | 64 | 135 | 1.0 | 2.0 | 0.00 | 0.00 | 0.00 | 58 | |
| 20260904040003 | 64 | 135 | 1.0 | 2.0 | 0.00 | 0.00 | 0.00 | 58 | |
| 20260904035503 | 64 | 135 | 0.0 | 1.0 | 0.00 | 0.00 | 0.00 | 59 | |
| 20260904035003 | 64 | 135 | 0.0 | 1.0 | 0.00 | 0.00 | 0.00 | 59 | |
| 20260904034503 | 63 | 180 | 0.0 | 2.0 | 0.00 | 0.00 | 0.00 | 59 | |
| 20260904034003 | 63 | 170 | 0.0 | 2.0 | 0.00 | 0.00 | 0.00 | 58 | |
| 20260904033503 | 63 | 154 | 1.0 | 3.0 | 0.00 | 0.00 | 0.00 | 59 | |
| 20260904033003 | 63 | 153 | 0.0 | 3.0 | 0.00 | 0.00 | 0.00 | 59 | |
| 20260904032503 | 63 | 150 | 0.0 | 2.0 | 0.00 | 0.00 | 0.00 | 59 | |
| 20260904032003 | 63 | 137 | 0.0 | 2.0 | 0.00 | 0.00 | 0.00 | 59 | |
| 20260904031503 | 63 | 149 | 0.0 | 2.0 | 0.00 | 0.00 | 0.00 | 59 | |
| 20260904031003 | 63 | 166 | 0.0 | 2.0 | 0.00 | 0.00 | 0.00 | 58 | |
| 20260904030503 | 63 | 153 | 0.0 | 2.0 | 0.00 | 0.00 | 0.00 | 58 | |
| 20260904030003 | 63 | 136 | 0.0 | 2.0 | 0.00 | 0.00 | 0.00 | 58 | |
| 20260904025503 | 64 | 135 | 1.0 | 2.0 | 0.00 | 0.00 | 0.00 | 58 | |
| 20260904025003 | 64 | 158 | 0.0 | 2.0 | 0.00 | 0.00 | 0.00 | 58 | |
| 20260904024503 | 64 | 145 | 0.0 | 2.0 | 0.00 | 0.00 | 0.00 | 58 | |
| 20260904024003 | 64 | 134 | 1.0 | 2.0 | 0.00 | 0.00 | 0.00 | 57 | |
| 20260904023504 | 64 | 140 | 0.0 | 2.0 | 0.00 | 0.00 | 0.00 | 57 | |
| 20260904023003 | 64 | 144 | 0.0 | 2.0 | 0.00 | 0.00 | 0.00 | 57 | |
| 20260904022503 | 64 | 141 | 0.0 | 2.0 | 0.00 | 0.00 | 0.00 | 57 | |
| 20260904022003 | 64 | 144 | 0.0 | 2.0 | 0.00 | 0.00 | 0.00 | 56 | |
| 20260904021503 | 64 | 145 | 1.0 | 2.0 | 0.00 | 0.00 | 0.00 | 56 | |
| 20260904021003 | 64 | 136 | 0.0 | 1.0 | 0.00 | 0.00 | 0.00 | 56 | |
| 20260904020503 | 65 | 135 | 0.0 | 1.0 | 0.00 | 0.00 | 0.00 | 56 | |
| 20260904020003 | 65 | 135 | 0.0 | 1.0 | 0.00 | 0.00 | 0.00 | 56 | |
| 20260904015503 | 65 | 0 | 0.0 | 0.0 | 0.00 | 0.00 | 0.00 | 55 | |
| 20260904015003 | 65 | 0 | 0.0 | 0.0 | 0.00 | 0.00 | 0.00 | 54 | |
| 20260904014503 | 65 | 135 | 0.0 | 1.0 | 0.00 | 0.00 | 0.00 | 53 | |
| 20260904014003 | 65 | 135 | 0.0 | 2.0 | 0.00 | 0.00 | 0.00 | 53 | |
| 20260904013503 | 66 | 135 | 0.0 | 2.0 | 0.00 | 0.00 | 0.00 | 53 | |
| 20260904013003 | 66 | 135 | 0.0 | 2.0 | 0.00 | 0.00 | 0.00 | 53 | |
| 20260904012503 | 66 | 0 | 0.0 | 0.0 | 0.00 | 0.00 | 0.00 | 51 | |
| 20260904012003 | 66 | 0 | 0.0 | 0.0 | 0.00 | 0.00 | 0.00 | 51 | |
| 20260904011503 | 66 | 0 | 0.0 | 0.0 | 0.00 | 0.00 | 0.00 | 50 | |
| 20260904011003 | 66 | 0 | 0.0 | 0.0 | 0.00 | 0.00 | 0.00 | 49 | |
| 20260904010503 | 67 | 149 | 0.0 | 2.0 | 0.00 | 0.00 | 0.00 | 50 | |
| 20260904010003 | 67 | 144 | 0.0 | 2.0 | 0.00 | 0.00 | 0.00 | 50 | |
| 20260904005503 | 67 | 145 | 0.0 | 2.0 | 0.00 | 0.00 | 0.00 | 50 | |
| 20260904005003 | 67 | 156 | 0.0 | 2.0 | 0.00 | 0.00 | 0.00 | 49 | |
| 20260904004503 | 67 | 148 | 0.0 | 2.0 | 0.00 | 0.00 | 0.00 | 48 | |
| 20260904004003 | 68 | 135 | 0.0 | 1.0 | 0.00 | 0.00 | 0.00 | 47 | |
| 20260904003503 | 68 | 145 | 0.0 | 2.0 | 0.00 | 0.00 | 0.00 | 47 | |
| 20260904003003 | 68 | 142 | 0.0 | 2.0 | 0.00 | 0.00 | 0.00 | 47 | |
| 20260904002503 | 68 | 135 | 0.0 | 2.0 | 0.00 | 0.00 | 0.00 | 47 | |
| 20260904002003 | 68 | 135 | 0.0 | 2.0 | 0.00 | 0.00 | 0.00 | 46 | |
| 20260904001503 | 68 | 135 | 0.0 | 2.0 | 0.00 | 0.00 | 0.00 | 45 | |
| 20260904001003 | 69 | 135 | 0.0 | 2.0 | 0.00 | 0.00 | 0.00 | 45 | |
| 20260904000503 | 69 | 135 | 0.0 | 2.0 | 0.00 | 0.00 | 0.00 | 45 | |
| 20260904000003 | 69 | 160 | 0.0 | 4.0 | 0.00 | 0.00 | 0.00 | 45 | |
| 20260903235503 | 69 | 160 | 0.0 | 4.0 | 0.00 | 0.00 | 0.00 | 45 | |
| 20260903235003 | 69 | 151 | 1.0 | 4.0 | 0.00 | 0.00 | 0.00 | 45 | |
| 20260903234503 | 69 | 142 | 0.0 | 2.0 | 0.00 | 0.00 | 0.00 | 45 | |
| 20260903234003 | 69 | 147 | 0.0 | 2.0 | 0.00 | 0.00 | 0.00 | 44 | |
| 20260903233503 | 69 | 147 | 0.0 | 2.0 | 0.00 | 0.00 | 0.00 | 44 | |
| 20260903233003 | 69 | 143 | 0.0 | 2.0 | 0.00 | 0.00 | 0.00 | 44 | |
| 20260903232503 | 69 | 135 | 0.0 | 2.0 | 0.00 | 0.00 | 0.00 | 44 | |
| 20260903232003 | 69 | 146 | 0.0 | 1.0 | 0.00 | 0.00 | 0.00 | 43 | |
| 20260903231503 | 69 | 139 | 0.0 | 2.0 | 0.00 | 0.00 | 0.00 | 42 | |
| 20260903231003 | 69 | 135 | 0.0 | 2.0 | 0.00 | 0.00 | 0.00 | 42 | |
| 20260903230503 | 69 | 138 | 0.0 | 2.0 | 0.00 | 0.00 | 0.00 | 42 | |
| 20260903230003 | 69 | 150 | 0.0 | 2.0 | 0.00 | 0.00 | 0.00 | 42 | |
| 20260903225503 | 69 | 148 | 0.0 | 4.0 | 0.00 | 0.00 | 0.00 | 41 | |
| 20260903225003 | 70 | 135 | 0.0 | 4.0 | 0.00 | 0.00 | 0.00 | 41 | |
| 20260903224503 | 70 | 128 | 1.0 | 2.0 | 0.00 | 0.00 | 0.00 | 42 | |
| 20260903224003 | 70 | 135 | 0.0 | 2.0 | 0.00 | 0.00 | 0.00 | 42 | |
| 20260903223503 | 70 | 0 | 0.0 | 0.0 | 0.00 | 0.00 | 0.00 | 42 | |
| 20260903223003 | 70 | 0 | 0.0 | 0.0 | 0.00 | 0.00 | 0.00 | 42 | |
| 20260903222503 | 70 | 167 | 0.0 | 2.0 | 0.00 | 0.00 | 0.00 | 42 | |
| 20260903222003 | 70 | 159 | 0.0 | 2.0 | 0.00 | 0.00 | 0.00 | 41 | |
| 20260903221503 | 70 | 135 | 0.0 | 1.0 | 0.00 | 0.00 | 0.00 | 41 | |
| 20260903221003 | 71 | 0 | 0.0 | 0.0 | 0.00 | 0.00 | 0.00 | 40 | |
| 20260903220503 | 71 | 0 | 0.0 | 0.0 | 0.00 | 0.00 | 0.00 | 39 | |
| 20260903220003 | 71 | 0 | 0.0 | 0.0 | 0.00 | 0.00 | 0.00 | 39 | |
| 20260903215503 | 71 | 135 | 0.0 | 2.0 | 0.00 | 0.00 | 0.00 | 39 | |
| 20260903215003 | 71 | 136 | 0.0 | 2.0 | 0.00 | 0.00 | 0.00 | 39 | |
| 20260903214503 | 71 | 152 | 0.0 | 2.0 | 0.00 | 0.00 | 0.00 | 40 | |
| 20260903214003 | 71 | 180 | 0.0 | 1.0 | 0.00 | 0.00 | 0.00 | 40 | |
| 20260903213503 | 71 | 0 | 0.0 | 0.0 | 0.00 | 0.00 | 0.00 | 40 | |
| 20260903213003 | 71 | 0 | 0.0 | 0.0 | 0.00 | 0.00 | 0.00 | 39 | |
| 20260903212503 | 71 | 135 | 0.0 | 1.0 | 0.00 | 0.00 | 0.00 | 39 | |
| 20260903212003 | 71 | 135 | 0.0 | 1.0 | 0.00 | 0.00 | 0.00 | 39 | |
| 20260903211503 | 72 | 135 | 0.0 | 1.0 | 0.00 | 0.00 | 0.00 | 38 | |
| 20260903211003 | 72 | 135 | 0.0 | 1.0 | 0.00 | 0.00 | 0.00 | 38 | |
| 20260903210503 | 72 | 139 | 0.0 | 1.0 | 0.00 | 0.00 | 0.00 | 37 | |
| 20260903210003 | 72 | 147 | 0.0 | 1.0 | 0.00 | 0.00 | 0.00 | 37 | |
| 20260903205503 | 72 | 0 | 0.0 | 0.0 | 0.00 | 0.00 | 0.00 | 36 | |
| 20260903205003 | 72 | 0 | 0.0 | 0.0 | 0.00 | 0.00 | 0.00 | 36 | |
| 20260903204503 | 72 | 135 | 0.0 | 1.0 | 0.00 | 0.00 | 0.00 | 35 | |
| 20260903204003 | 72 | 135 | 0.0 | 1.0 | 0.00 | 0.00 | 0.00 | 35 | |
| 20260903203503 | 72 | 135 | 0.0 | 1.0 | 0.00 | 0.00 | 0.00 | 34 | |
| 20260903203003 | 73 | 135 | 0.0 | 2.0 | 0.00 | 0.00 | 0.00 | 34 | |
| 20260903202503 | 73 | 135 | 0.0 | 2.0 | 0.00 | 0.00 | 0.00 | 33 | |
| 20260903202003 | 73 | 132 | 0.0 | 2.0 | 0.00 | 0.00 | 0.00 | 33 | |
| 20260903201503 | 73 | 135 | 0.0 | 2.0 | 0.00 | 0.00 | 0.00 | 32 | |
| 20260903201003 | 73 | 137 | 0.0 | 2.0 | 0.00 | 0.00 | 0.00 | 32 | |
| 20260903200503 | 74 | 136 | 0.0 | 2.0 | 0.00 | 0.00 | 0.00 | 30 | |
| 20260903200003 | 74 | 138 | 0.0 | 2.0 | 0.00 | 0.00 | 0.00 | 30 | |
| 20260903195503 | 74 | 138 | 0.0 | 1.0 | 0.00 | 0.00 | 0.00 | 30 | |
| 20260903195003 | 74 | 135 | 0.0 | 1.0 | 0.00 | 0.00 | 0.00 | 29 | |
| 20260903194503 | 75 | 0 | 0.0 | 0.0 | 0.00 | 0.00 | 0.00 | 29 | |
| 20260903194003 | 75 | 0 | 0.0 | 0.0 | 0.00 | 0.00 | 0.00 | 28 | |
| 20260903193503 | 75 | 0 | 0.0 | 0.0 | 0.00 | 0.00 | 0.00 | 27 | |
| 20260903193003 | 75 | 142 | 0.0 | 2.0 | 0.00 | 0.00 | 0.00 | 27 | |
| 20260903192503 | 76 | 155 | 0.0 | 2.0 | 0.00 | 0.00 | 0.00 | 26 | |
| 20260903192003 | 76 | 158 | 0.0 | 2.0 | 0.00 | 0.00 | 0.00 | 26 | |
| 20260903191503 | 76 | 140 | 0.0 | 2.0 | 0.00 | 0.00 | 0.00 | 26 | |
| 20260903191003 | 76 | 136 | 0.0 | 2.0 | 0.00 | 0.00 | 0.00 | 25 | |
| 20260903190503 | 77 | 136 | 0.0 | 2.0 | 0.00 | 0.00 | 0.00 | 25 | |
| 20260903190003 | 77 | 149 | 0.0 | 2.0 | 0.00 | 0.00 | 0.00 | 25 | |
| 20260903185503 | 77 | 156 | 0.0 | 1.0 | 0.00 | 0.00 | 0.00 | 24 | |
| 20260903185003 | 77 | 135 | 0.0 | 1.0 | 0.00 | 0.00 | 0.00 | 24 | |
| 20260903184503 | 77 | 135 | 0.0 | 1.0 | 0.00 | 0.00 | 0.00 | 24 | |
| 20260903184003 | 78 | 253 | 0.0 | 1.0 | 0.00 | 0.00 | 0.00 | 23 | |
| 20260903183503 | 78 | 237 | 0.0 | 2.0 | 0.00 | 0.00 | 0.00 | 22 | |
| 20260903183003 | 78 | 254 | 0.0 | 2.0 | 0.00 | 0.00 | 0.00 | 22 | |
| 20260903182503 | 78 | 266 | 0.0 | 2.0 | 0.00 | 0.00 | 0.00 | 21 | |
| 20260903182003 | 79 | 261 | 0.0 | 2.0 | 0.00 | 0.00 | 0.00 | 21 | |
| 20260903181503 | 79 | 249 | 0.0 | 2.0 | 0.00 | 0.00 | 0.00 | 20 | |
| 20260903181003 | 79 | 232 | 0.0 | 2.0 | 0.00 | 0.00 | 0.00 | 20 | |
| 20260903180503 | 80 | 231 | 0.0 | 2.0 | 0.00 | 0.00 | 0.00 | 19 | |
| 20260903180003 | 80 | 256 | 0.0 | 2.0 | 0.00 | 0.00 | 0.00 | 19 | |
| 20260903175503 | 80 | 266 | 1.0 | 3.0 | 0.00 | 0.00 | 0.00 | 18 | |
| 20260903175003 | 80 | 270 | 1.0 | 3.0 | 0.00 | 0.00 | 0.00 | 18 | |
| 20260903174503 | 80 | 278 | 1.0 | 3.0 | 0.00 | 0.00 | 0.00 | 18 | |
| 20260903174003 | 81 | 244 | 1.0 | 3.0 | 0.00 | 0.00 | 0.00 | 17 | |
| 20260903173503 | 81 | 256 | 1.0 | 4.0 | 0.00 | 0.00 | 0.00 | 17 | |
| 20260903173003 | 81 | 275 | 1.0 | 5.0 | 0.00 | 0.00 | 0.00 | 16 | |
| 20260903172503 | 81 | 270 | 1.0 | 5.0 | 0.00 | 0.00 | 0.00 | 16 | |
| 20260903172003 | 81 | 266 | 2.0 | 6.0 | 0.00 | 0.00 | 0.00 | 16 | |
| 20260903171503 | 81 | 292 | 1.0 | 7.0 | 0.00 | 0.00 | 0.00 | 15 | |
| 20260903171003 | 82 | 310 | 1.0 | 7.0 | 0.00 | 0.00 | 0.00 | 16 | |
| 20260903170503 | 82 | 301 | 3.0 | 7.0 | 0.00 | 0.00 | 0.00 | 14 | |
| 20260903170003 | 82 | 275 | 3.0 | 8.0 | 0.00 | 0.00 | 0.00 | 14 | |
| 20260903165503 | 82 | 268 | 2.0 | 8.0 | 0.00 | 0.00 | 0.00 | 15 | |
| 20260903165003 | 83 | 275 | 2.0 | 4.0 | 0.00 | 0.00 | 0.00 | 15 | |
| 20260903164503 | 83 | 257 | 2.0 | 8.0 | 0.00 | 0.00 | 0.00 | 15 | |
| 20260903164003 | 83 | 260 | 2.0 | 8.0 | 0.00 | 0.00 | 0.00 | 14 | |
| 20260903163503 | 83 | 280 | 3.0 | 6.0 | 0.00 | 0.00 | 0.00 | 14 | |
| 20260903163003 | 83 | 276 | 2.0 | 6.0 | 0.00 | 0.00 | 0.00 | 14 | |
| 20260903162503 | 83 | 269 | 1.0 | 8.0 | 0.00 | 0.00 | 0.00 | 13 | |
| 20260903162003 | 84 | 268 | 2.0 | 11.0 | 0.00 | 0.00 | 0.00 | 13 | |
| 20260903161503 | 85 | 257 | 2.0 | 11.0 | 0.00 | 0.00 | 0.00 | 12 | |
| 20260903161003 | 86 | 231 | 2.0 | 6.0 | 0.00 | 0.00 | 0.00 | 10 | |
| 20260903160503 | 87 | 223 | 3.0 | 7.0 | 0.00 | 0.00 | 0.00 | 10 | |
| 20260903160003 | 87 | 228 | 3.0 | 7.0 | 0.00 | 0.00 | 0.00 | 10 | |
| 20260903155503 | 87 | 227 | 2.0 | 6.0 | 0.00 | 0.00 | 0.00 | 10 | |
| 20260903155003 | 88 | 124 | 2.0 | 6.0 | 0.00 | 0.00 | 0.00 | 10 | |
| 20260903154503 | 88 | 16 | 2.0 | 6.0 | 0.00 | 0.00 | 0.00 | 10 | |
| 20260903154003 | 87 | 292 | 3.0 | 7.0 | 0.00 | 0.00 | 0.00 | 10 | |
| 20260903153503 | 87 | 268 | 2.0 | 8.0 | 0.00 | 0.00 | 0.00 | 10 | |
| 20260903153003 | 88 | 260 | 3.0 | 8.0 | 0.00 | 0.00 | 0.00 | 10 | |
| 20260903152503 | 88 | 250 | 2.0 | 8.0 | 0.00 | 0.00 | 0.00 | 10 | |
| 20260903152003 | 87 | 282 | 1.0 | 8.0 | 0.00 | 0.00 | 0.00 | 10 | |
| 20260903151503 | 87 | 299 | 2.0 | 8.0 | 0.00 | 0.00 | 0.00 | 10 | |
| 20260903151003 | 87 | 308 | 4.0 | 8.0 | 0.00 | 0.00 | 0.00 | 10 | |
| 20260903150503 | 88 | 305 | 3.0 | 8.0 | 0.00 | 0.00 | 0.00 | 10 | |
| 20260903150003 | 88 | 274 | 3.0 | 8.0 | 0.00 | 0.00 | 0.00 | 10 | |
| 20260903145503 | 88 | 260 | 0.0 | 6.0 | 0.00 | 0.00 | 0.00 | 10 | |
| 20260903145003 | 88 | 289 | 3.0 | 6.0 | 0.00 | 0.00 | 0.00 | 10 | |
| 20260903144503 | 89 | 306 | 2.0 | 5.0 | 0.00 | 0.00 | 0.00 | 10 | |
| 20260903144003 | 89 | 261 | 2.0 | 4.0 | 0.00 | 0.00 | 0.00 | 10 | |
| 20260903143503 | 89 | 74 | 2.0 | 9.0 | 0.00 | 0.00 | 0.00 | 10 | |
| 20260903143003 | 89 | 349 | 2.0 | 9.0 | 0.00 | 0.00 | 0.00 | 10 | |
| 20260903142503 | 89 | 277 | 4.0 | 9.0 | 0.00 | 0.00 | 0.00 | 10 | |
| 20260903142003 | 89 | 239 | 1.0 | 9.0 | 0.00 | 0.00 | 0.00 | 10 | |
| 20260903141503 | 89 | 253 | 2.0 | 7.0 | 0.00 | 0.00 | 0.00 | 10 | |
| 20260903141003 | 89 | 268 | 2.0 | 7.0 | 0.00 | 0.00 | 0.00 | 10 | |
| 20260903140503 | 89 | 264 | 3.0 | 7.0 | 0.00 | 0.00 | 0.00 | 10 | |
| 20260903140003 | 89 | 259 | 3.0 | 7.0 | 0.00 | 0.00 | 0.00 | 10 | |
| 20260903135503 | 88 | 281 | 1.0 | 8.0 | 0.00 | 0.00 | 0.00 | 10 | |
| 20260903135003 | 88 | 275 | 1.0 | 8.0 | 0.00 | 0.00 | 0.00 | 10 | |
| 20260903134503 | 88 | 235 | 3.0 | 8.0 | 0.00 | 0.00 | 0.00 | 10 | |
| 20260903134003 | 89 | 219 | 2.0 | 6.0 | 0.00 | 0.00 | 0.00 | 10 | |
| 20260903133503 | 88 | 240 | 1.0 | 7.0 | 0.00 | 0.00 | 0.00 | 10 | |
| 20260903133003 | 88 | 226 | 2.0 | 7.0 | 0.00 | 0.00 | 0.00 | 10 | |
| 20260903132503 | 88 | 250 | 2.0 | 7.0 | 0.00 | 0.00 | 0.00 | 10 | |
| 20260903132003 | 88 | 297 | 2.0 | 8.0 | 0.00 | 0.00 | 0.00 | 10 | |
| 20260903131503 | 88 | 302 | 3.0 | 8.0 | 0.00 | 0.00 | 0.00 | 10 | |
| 20260903131003 | 89 | 302 | 2.0 | 4.0 | 0.00 | 0.00 | 0.00 | 10 | |
| 20260903130503 | 87 | 309 | 2.0 | 14.0 | 0.00 | 0.00 | 0.00 | 10 | |
| 20260903130003 | 87 | 302 | 2.0 | 14.0 | 0.00 | 0.00 | 0.00 | 10 | |
| 20260903125503 | 89 | 276 | 2.0 | 7.0 | 0.00 | 0.00 | 0.00 | 10 | |
| 20260903125003 | 89 | 294 | 1.0 | 6.0 | 0.00 | 0.00 | 0.00 | 10 | |
| 20260903124503 | 88 | 314 | 2.0 | 8.0 | 0.00 | 0.00 | 0.00 | 10 | |
| 20260903124003 | 87 | 299 | 0.0 | 9.0 | 0.00 | 0.00 | 0.00 | 10 | |
| 20260903123503 | 87 | 283 | 1.0 | 9.0 | 0.00 | 0.00 | 0.00 | 10 | |
| 20260903123003 | 87 | 306 | 2.0 | 8.0 | 0.00 | 0.00 | 0.00 | 10 | |
| 20260903122503 | 87 | 303 | 2.0 | 8.0 | 0.00 | 0.00 | 0.00 | 10 | |
| 20260903122003 | 87 | 278 | 2.0 | 11.0 | 0.00 | 0.00 | 0.00 | 10 | |
| 20260903121503 | 86 | 282 | 1.0 | 11.0 | 0.00 | 0.00 | 0.00 | 10 | |
| 20260903121003 | 87 | 272 | 4.0 | 6.0 | 0.00 | 0.00 | 0.00 | 10 | |
| 20260903120503 | 85 | 269 | 2.0 | 5.0 | 0.00 | 0.00 | 0.00 | 10 | |
| 20260903120003 | 85 | 263 | 2.0 | 8.0 | 0.00 | 0.00 | 0.00 | 10 | |
| 20260903115503 | 85 | 280 | 2.0 | 8.0 | 0.00 | 0.00 | 0.00 | 10 | |
| 20260903115003 | 85 | 288 | 3.0 | 8.0 | 0.00 | 0.00 | 0.00 | 10 | |
| 20260903114503 | 85 | 286 | 2.0 | 7.0 | 0.00 | 0.00 | 0.00 | 10 | |
| 20260903114003 | 85 | 303 | 2.0 | 8.0 | 0.00 | 0.00 | 0.00 | 10 | |
| 20260903113503 | 85 | 294 | 1.0 | 8.0 | 0.00 | 0.00 | 0.00 | 10 | |
| 20260903113003 | 86 | 279 | 1.0 | 8.0 | 0.00 | 0.00 | 0.00 | 10 | |
| 20260903112503 | 86 | 245 | 2.0 | 8.0 | 0.00 | 0.00 | 0.00 | 10 | |
| 20260903112003 | 85 | 278 | 1.0 | 8.0 | 0.00 | 0.00 | 0.00 | 11 | |
| 20260903111503 | 85 | 303 | 2.0 | 7.0 | 0.00 | 0.00 | 0.00 | 10 | |
| 20260903111003 | 86 | 135 | 4.0 | 6.0 | 0.00 | 0.00 | 0.00 | 10 | |
| 20260903110503 | 86 | 162 | 2.0 | 4.0 | 0.00 | 0.00 | 0.00 | 11 | |
| 20260903110003 | 86 | 259 | 2.0 | 4.0 | 0.00 | 0.00 | 0.00 | 11 | |
| 20260903105503 | 85 | 282 | 1.0 | 5.0 | 0.00 | 0.00 | 0.00 | 12 | |
| 20260903105003 | 84 | 282 | 0.0 | 5.0 | 0.00 | 0.00 | 0.00 | 13 | |
| 20260903104503 | 83 | 247 | 1.0 | 5.0 | 0.00 | 0.00 | 0.00 | 14 | |
| 20260903104003 | 83 | 281 | 3.0 | 8.0 | 0.00 | 0.00 | 0.00 | 13 | |
| 20260903103503 | 83 | 301 | 3.0 | 8.0 | 0.00 | 0.00 | 0.00 | 14 | |
| 20260903103003 | 83 | 310 | 2.0 | 7.0 | 0.00 | 0.00 | 0.00 | 13 | |
| 20260903102503 | 83 | 295 | 4.0 | 7.0 | 0.00 | 0.00 | 0.00 | 13 | |
| 20260903102003 | 83 | 253 | 2.0 | 7.0 | 0.00 | 0.00 | 0.00 | 13 | |
| 20260903101503 | 83 | 236 | 3.0 | 6.0 | 0.00 | 0.00 | 0.00 | 13 | |
| 20260903101003 | 83 | 235 | 2.0 | 4.0 | 0.00 | 0.00 | 0.00 | 14 |